Wind_Speed
13 12 10 9 8 8 8 9 9 10 12 13 11 10 11 15 15 16 17 18 17 17 16 16 16 15 14 13 12 11 11 10 8 8 8 9 9 10 11 12 14 15 15 15
15 13 12 11 10 11 11 11 10 10 12 13 11 10 12 15 17 17 18 18 17 16 15 15 15 14 14 13 11 11 11 10 9 8 8 9 9 10 10 11 12 14 15 15
16 12 13 13 12 13 13 11 11 11 13 13 12 12 13 16 15 17 18 18 16 15 14 13 14 14 13 12 11 11 11 11 10 9 8 8 9 10 11 11 12 13 13 14
17 15 16 15 14 14 12 11 13 13 13 12 10 12 15 17 14 17 18 17 16 15 14 13 13 14 13 12 11 11 11 10 10 9 8 8 8 9 10 11 12 13 13 14
18 17 18 17 15 15 14 13 14 14 13 12 10 12 14 16 14 14 17 18 17 15 14 14 13 13 13 12 12 11 10 10 9 9 9 8 8 10 10 11 12 13 14 15
19 19 19 18 17 16 15 15 14 12 12 13 10 11 13 16 14 15 18 18 17 16 15 15 14 13 14 13 12 11 10 9 9 9 8 7 7 9 10 11 11 12 13 14
21 20 20 19 17 16 16 14 12 11 12 12 11 12 14 18 18 19 19 18 17 15 15 15 15 14 14 13 12 11 11 9 9 8 8 7 8 8 9 10 11 12 13 14
21 20 20 20 18 16 16 14 13 11 14 15 12 11 13 16 18 19 18 17 16 16 15 14 14 13 13 12 11 11 10 10 9 9 9 9 9 9 9 10 10 12 13 14
17 17 18 19 18 18 16 16 14 15 15 17 14 11 14 16 17 17 15 16 16 15 14 14 14 14 13 12 12 11 10 10 9 9 10 10 11 10 11 11 12 13 14 15
20 18 17 19 19 18 17 16 16 17 17 16 15 16 18 18 16 15 14 16 15 14 14 14 14 14 13 12 11 11 11 10 10 10 10 10 11 11 11 12 12 13 13 14
24 22 19 19 20 17 17 18 19 18 17 16 17 21 20 18 14 13 15 16 16 15 15 14 13 13 12 12 11 11 10 10 9 10 10 10 11 11 11 12 13 13 14 14
25 24 22 21 20 18 18 17 18 20 20 20 17 22 22 15 12 13 15 17 17 16 15 15 14 14 13 13 12 11 11 10 10 10 10 11 11 12 12 13 13 14 14 15
27 27 25 22 20 20 19 18 18 19 19 18 17 22 20 18 17 17 19 18 17 16 16 16 15 15 14 13 13 12 11 11 11 11 11 12 11 12 13 13 14 15 15 15
29 30 27 22 19 20 20 19 19 20 20 19 19 23 23 24 22 19 18 17 18 18 18 17 16 16 15 15 14 14 13 12 12 12 12 12 13 13 13 14 14 15 15 15
32 31 29 27 23 18 17 19 19 19 20 21 20 23 25 25 25 21 19 19 19 20 20 19 17 17 17 16 16 15 14 14 14 14 13 14 14 14 14 14 14 15 16 16
35 33 30 30 28 22 19 18 18 19 19 21 23 25 27 25 22 20 19 21 20 21 21 20 19 19 19 18 18 18 17 16 16 16 16 15 15 14 14 14 15 16 17 17
35 34 33 30 27 26 27 24 22 21 21 22 25 28 28 27 24 20 19 21 22 22 22 22 21 20 20 20 20 19 19 18 18 18 17 16 16 16 15 16 16 16 18 18
36 35 34 31 28 30 28 25 24 25 24 25 28 31 31 29 26 23 24 24 24 24 24 23 22 22 22 22 21 20 20 20 20 19 19 18 17 17 17 18 18 18 19 18
36 36 35 33 31 30 27 25 26 27 28 28 31 34 33 29 29 29 28 27 26 25 24 24 24 23 23 23 22 22 22 21 21 21 20 19 19 19 19 20 19 19 19 19
37 37 37 35 32 29 27 28 28 29 31 32 34 34 32 29 30 29 27 27 26 25 25 25 25 24 23 23 23 23 23 23 23 22 22 21 22 22 21 21 21 20 20 20
39 39 38 36 35 32 30 32 32 32 33 33 34 33 32 31 29 29 29 28 27 27 26 26 26 25 25 24 24 24 24 23 23 24 24 24 24 24 23 23 22 22 22 22
38 39 39 37 37 34 35 36 37 35 33 32 32 32 32 32 31 31 30 30 29 28 28 27 26 26 26 25 26 25 25 25 25 25 24 24 24 24 24 25 24 24 24 24
35 35 34 35 37 39 38 38 38 37 35 32 33 34 32 32 31 31 31 31 30 30 30 29 28 27 27 26 26 26 26 25 25 26 25 25 25 25 25 25 25 25 25 25
36 37 37 36 38 41 42 41 39 39 38 36 35 35 34 34 33 33 32 32 32 31 31 30 29 29 28 27 27 27 26 26 25 25 25 26 26 26 26 25 25 25 25 26
40 39 40 40 40 40 40 41 41 38 37 36 35 36 35 34 34 33 33 32 32 32 31 30 29 29 28 28 28 27 27 26 26 26 26 26 26 26 26 25 25 25 25 26
39 38 38 40 41 41 40 40 38 37 36 36 35 35 35 35 34 34 33 33 32 31 31 30 29 29 28 28 27 27 28 28 27 26 25 25 25 25 25 24 24 24 25 25
Wind_Direction
265 268 272 276 277 273 265 256 255 259 265 272 281 285 279 291 299 300 303 306 309 312 315 315 315 317 319 317 315 313 318 321 312 291 269 253 239 236 232 231 230 232 234 235
263 266 268 263 261 263 263 260 258 263 267 274 278 281 278 283 296 303 307 307 306 308 314 314 314 313 316 315 311 308 309 312 309 296 276 255 246 242 238 232 228 229 232 233
264 265 269 268 263 263 263 264 261 260 266 275 287 291 288 284 287 299 305 305 303 310 311 314 312 312 314 313 308 304 303 304 304 294 277 259 249 240 241 235 229 228 232 236
261 257 260 263 263 263 264 268 266 263 263 266 271 282 284 281 282 296 303 306 310 307 312 315 313 313 314 312 307 303 300 299 299 290 280 265 252 247 241 238 236 234 236 238
260 259 258 261 261 259 255 255 261 264 265 262 253 261 274 286 283 287 299 305 309 308 311 313 311 313 315 312 307 303 302 297 295 290 286 272 258 248 243 240 240 237 238 239
255 258 260 259 257 258 258 259 264 269 269 265 259 254 267 274 281 290 295 299 305 308 308 309 310 313 313 310 306 302 302 299 293 293 289 274 260 251 245 240 237 239 240 242
257 254 256 258 257 257 257 258 261 273 275 268 252 244 251 266 277 285 291 295 298 303 304 307 310 309 311 308 304 301 300 297 291 287 282 279 267 257 249 243 244 246 245 247
255 258 258 255 253 249 251 248 246 249 272 277 259 243 243 264 281 289 292 295 297 299 301 305 308 310 313 310 305 303 301 297 291 287 281 278 272 264 255 250 249 247 248 251
244 260 261 259 252 247 243 242 239 246 261 281 288 278 255 260 277 288 293 296 296 298 300 306 307 311 312 312 308 305 300 296 293 291 287 278 273 266 258 254 257 256 255 253
225 231 242 257 255 248 235 236 239 235 245 256 266 262 258 256 265 283 297 296 298 301 302 303 304 307 310 311 311 311 307 299 294 294 289 280 275 274 263 257 258 259 258 252
226 227 231 244 252 248 241 229 229 234 234 244 261 266 264 265 260 279 295 298 299 299 300 297 299 306 309 310 311 312 310 308 301 297 293 286 279 277 274 266 262 263 262 259
228 228 226 234 249 250 242 239 235 233 232 231 249 274 276 271 263 273 287 293 294 295 298 299 301 302 304 306 307 308 307 303 300 301 299 292 285 280 276 270 268 267 265 263
226 225 225 224 234 244 246 243 240 238 236 236 244 264 271 270 263 271 279 284 287 293 297 299 297 299 299 299 301 304 304 301 297 297 296 297 291 285 282 279 275 270 266 267
227 228 224 219 229 238 244 241 239 234 234 240 242 258 267 267 266 266 271 281 286 287 291 294 298 297 295 293 295 297 300 297 296 295 294 292 293 292 286 282 278 274 270 270
227 229 227 216 214 228 241 241 238 235 231 234 241 252 260 263 267 265 270 281 282 283 285 288 290 290 290 289 289 290 294 296 297 296 295 293 291 292 290 285 280 279 276 273
228 228 227 222 216 220 232 237 235 237 240 237 240 250 251 253 255 262 271 278 280 282 283 283 285 286 287 287 288 287 288 290 293 295 296 295 292 290 292 291 288 283 281 278
231 229 227 225 222 224 228 230 233 235 238 241 245 250 256 259 263 266 271 277 282 282 281 280 281 283 286 287 288 286 284 286 289 292 294 293 292 289 288 288 289 286 282 281
230 229 227 225 222 228 232 230 234 237 238 238 242 249 253 256 264 272 276 278 280 280 280 279 280 281 283 285 285 284 283 283 285 287 289 291 290 287 285 287 287 286 284 281
229 231 229 227 227 232 231 229 230 233 235 236 240 247 252 257 263 267 273 277 278 279 278 278 278 280 282 284 283 282 282 282 282 284 286 287 288 285 286 288 287 285 284 282
227 230 231 229 226 227 231 232 231 235 238 236 240 247 253 256 260 264 271 276 277 277 277 276 278 280 280 281 281 281 281 281 281 281 282 284 286 285 286 287 286 285 285 284
226 229 230 229 229 227 230 232 231 230 236 240 246 251 255 259 262 266 272 275 275 276 277 277 277 278 279 279 279 280 280 281 280 280 281 282 284 285 285 285 287 287 286 286
230 231 232 231 229 229 232 235 236 234 236 239 247 252 255 260 262 266 270 272 273 274 275 276 277 277 278 278 277 278 279 279 280 280 280 281 283 285 284 284 285 286 286 285
226 231 233 233 230 229 230 236 241 243 243 244 250 255 259 261 263 266 268 271 272 273 274 276 276 276 276 276 277 276 278 280 281 281 279 280 281 281 282 283 284 284 285 285
219 223 225 227 230 232 233 236 240 244 248 250 253 257 260 262 264 266 267 269 270 271 273 274 274 275 274 275 276 276 277 278 280 281 280 280 281 281 280 280 282 282 284 285
217 220 224 228 232 235 237 241 242 245 248 251 255 257 261 263 264 265 266 267 269 271 272 272 273 274 275 274 274 274 275 277 278 279 280 280 281 281 280 280 281 282 284 286
219 218 219 226 232 236 238 242 245 247 250 253 254 257 259 261 262 264 265 266 268 270 270 271 272 273 274 275 275 275 275 276 277 278 278 280 280 279 279 279 281 282 283 285
Height
5890 5892 5892 5893 5894 5896 5897 5898 5899 5901 5899 5898 5897 5897 5895 5892 5890 5887 5885 5883 5880 5879 5877 5876 5874 5872 5870 5869 5867 5867 5865 5865 5863 5863 5863 5864 5865 5866 5868 5871 5872 5875 5877 5879
5887 5889 5890 5890 5892 5893 5894 5895 5896 5898 5897 5896 5895 5894 5893 5891 5888 5885 5883 5881 5879 5876 5875 5874 5872 5870 5869 5867 5866 5865 5865 5864 5863 5862 5862 5862 5863 5865 5867 5868 5870 5872 5874 5877
5884 5886 5887 5888 5889 5890 5891 5892 5894 5894 5894 5893 5893 5892 5890 5887 5885 5883 5881 5879 5876 5875 5873 5872 5870 5869 5867 5866 5865 5864 5863 5863 5862 5861 5861 5861 5861 5863 5865 5866 5869 5871 5872 5874
5880 5882 5884 5884 5886 5887 5888 5889 5890 5890 5890 5890 5891 5890 5889 5884 5882 5880 5878 5877 5874 5872 5871 5870 5869 5867 5866 5865 5864 5863 5862 5861 5860 5860 5859 5859 5860 5861 5862 5864 5866 5868 5870 5872
5876 5878 5879 5880 5882 5883 5884 5886 5886 5886 5886 5887 5887 5888 5887 5882 5879 5877 5876 5875 5873 5870 5869 5868 5867 5866 5865 5863 5862 5861 5861 5860 5859 5858 5857 5857 5858 5859 5860 5862 5864 5866 5868 5870
5872 5874 5875 5877 5878 5879 5880 5882 5882 5882 5883 5884 5884 5885 5884 5880 5878 5876 5874 5872 5871 5869 5868 5867 5865 5865 5864 5862 5861 5860 5859 5858 5858 5857 5856 5856 5856 5857 5858 5860 5861 5863 5865 5867
5868 5870 5871 5872 5874 5875 5877 5878 5879 5880 5880 5880 5880 5881 5882 5878 5877 5875 5873 5871 5869 5868 5866 5865 5864 5863 5862 5861 5859 5858 5857 5857 5856 5856 5855 5855 5855 5856 5857 5858 5859 5860 5862 5864
5863 5865 5867 5868 5870 5872 5873 5875 5877 5879 5878 5875 5874 5876 5877 5875 5874 5872 5871 5869 5867 5866 5865 5863 5862 5861 5860 5859 5858 5856 5855 5855 5854 5854 5854 5854 5854 5854 5855 5856 5857 5858 5860 5861
5861 5863 5864 5864 5865 5867 5869 5871 5874 5876 5876 5876 5874 5874 5872 5869 5869 5869 5868 5867 5865 5864 5863 5861 5860 5859 5858 5857 5856 5855 5854 5853 5853 5852 5852 5852 5852 5852 5852 5854 5855 5855 5857 5858
5855 5859 5861 5861 5861 5862 5865 5868 5870 5871 5872 5873 5873 5870 5868 5866 5865 5865 5864 5864 5863 5862 5861 5860 5859 5858 5857 5856 5855 5854 5853 5852 5851 5851 5850 5850 5850 5850 5850 5851 5852 5852 5853 5854
5849 5853 5857 5857 5857 5859 5861 5862 5864 5867 5869 5870 5870 5868 5863 5860 5860 5861 5862 5862 5861 5860 5859 5858 5857 5857 5856 5854 5854 5853 5852 5851 5850 5849 5849 5848 5848 5848 5848 5848 5849 5850 5850 5851
5843 5847 5850 5853 5854 5855 5857 5858 5860 5862 5863 5865 5866 5865 5858 5856 5857 5857 5859 5860 5859 5858 5857 5856 5855 5855 5854 5853 5852 5851 5850 5849 5849 5848 5847 5846 5846 5845 5845 5845 5845 5846 5847 5847
5837 5840 5844 5848 5852 5852 5853 5854 5856 5858 5859 5861 5863 5861 5856 5856 5855 5855 5856 5857 5856 5856 5855 5854 5853 5852 5852 5851 5850 5850 5849 5848 5847 5846 5845 5845 5844 5843 5843 5842 5842 5843 5843 5844
5830 5833 5838 5844 5847 5848 5848 5850 5852 5853 5855 5857 5859 5856 5854 5852 5851 5852 5853 5853 5854 5853 5853 5851 5850 5850 5850 5849 5848 5848 5847 5846 5845 5844 5843 5843 5842 5841 5840 5840 5840 5840 5840 5841
5822 5826 5831 5835 5839 5841 5843 5845 5847 5848 5851 5853 5854 5852 5849 5846 5845 5846 5848 5849 5850 5850 5850 5849 5848 5848 5847 5847 5846 5846 5845 5844 5843 5842 5841 5840 5839 5838 5838 5837 5837 5837 5837 5838
5815 5819 5824 5828 5833 5836 5839 5841 5843 5845 5846 5848 5848 5846 5842 5839 5840 5841 5845 5846 5846 5846 5846 5846 5845 5845 5844 5843 5843 5842 5842 5841 5840 5839 5838 5837 5836 5835 5835 5834 5834 5834 5834 5834
5807 5812 5817 5821 5827 5830 5832 5836 5838 5840 5842 5843 5842 5840 5837 5837 5836 5837 5839 5841 5842 5842 5842 5841 5841 5841 5840 5839 5839 5838 5838 5837 5836 5836 5835 5833 5833 5832 5832 5831 5831 5830 5830 5830
5800 5804 5809 5815 5820 5822 5827 5830 5832 5834 5835 5836 5835 5833 5832 5831 5831 5834 5836 5837 5837 5837 5837 5837 5836 5836 5835 5835 5834 5834 5834 5833 5833 5832 5831 5830 5829 5828 5828 5828 5827 5826 5826 5825
5793 5797 5802 5807 5811 5815 5820 5822 5825 5827 5828 5828 5828 5825 5826 5827 5829 5830 5831 5832 5832 5832 5832 5831 5831 5831 5831 5830 5829 5829 5829 5828 5828 5828 5827 5826 5825 5825 5824 5823 5822 5822 5821 5821
5785 5789 5795 5799 5804 5809 5813 5815 5816 5820 5819 5821 5820 5819 5820 5823 5825 5825 5826 5826 5826 5826 5826 5826 5826 5826 5825 5825 5824 5824 5824 5823 5823 5823 5822 5821 5821 5820 5820 5819 5818 5817 5817 5816
5777 5781 5786 5791 5796 5801 5804 5804 5808 5812 5811 5811 5812 5813 5815 5817 5819 5819 5820 5820 5820 5820 5820 5820 5820 5820 5820 5820 5819 5818 5818 5818 5817 5817 5817 5816 5815 5815 5814 5813 5813 5812 5812 5811
5769 5774 5778 5784 5788 5795 5794 5795 5799 5800 5802 5803 5805 5806 5808 5811 5813 5813 5813 5814 5814 5814 5814 5814 5814 5814 5814 5813 5813 5812 5812 5812 5811 5811 5810 5810 5809 5809 5808 5808 5807 5807 5806 5805
5762 5767 5771 5776 5780 5782 5785 5787 5790 5794 5795 5796 5799 5801 5802 5803 5805 5806 5806 5807 5807 5807 5807 5807 5807 5807 5807 5807 5806 5806 5806 5805 5804 5804 5804 5803 5803 5803 5802 5801 5801 5801 5800 5799
5753 5758 5763 5766 5769 5773 5776 5779 5783 5786 5788 5790 5792 5794 5794 5796 5798 5798 5799 5800 5800 5800 5800 5800 5800 5800 5800 5800 5799 5799 5799 5798 5798 5797 5797 5797 5796 5796 5795 5795 5794 5794 5793 5792
5743 5748 5753 5758 5761 5765 5769 5772 5775 5777 5779 5782 5785 5786 5788 5789 5790 5791 5791 5792 5792 5792 5792 5792 5793 5793 5793 5793 5792 5792 5791 5791 5791 5791 5790 5790 5789 5789 5788 5788 5788 5787 5786 5786
5736 5740 5745 5749 5753 5758 5761 5764 5766 5769 5772 5775 5777 5779 5780 5781 5782 5782 5783 5784 5784 5785 5785 5785 5785 5785 5785 5785 5785 5784 5784 5784 5784 5784 5783 5783 5782 5782 5781 5781 5781 5780 5779 5779